Regional Weather Roundup
Issued by NWS Upton, NY

Current Version | Previous Version | Text Only | Print | Product List | Glossary On
Versions: 1 2 3 4 5 6 7 8 9 10 11 12 13 14 15 16 17 18 19 20 21 22 23 24 25 26 27 28 29 30 31 32 33 34 35 36 37 38 39 40 41 42 43 44 45 46 47 48 49 50
954 ASUS41 KOKX 271309 RWROKX REGIONAL WEATHER ROUNDUP NATIONAL WEATHER SERVICE NEW YORK NY 900 AM EDT SAT MAY 27 2017 NOTE: "FAIR" INDICATES FEW OR NO CLOUDS BELOW 12,000 FEET WITH NO SIGNIFICANT WEATHER AND/OR OBSTRUCTIONS TO VISIBILITY. NYZ071-072-176-178-NJZ106-104-271400- NEW YORK CITY METRO AREA CITY SKY/WX TMP DP RH WIND PRES REMARKS Central Park SUNNY 65 54 67 N6 29.90S Wall St Helipt SUNNY 65 55 70 VRB6 29.89S Bronx Bot Gard N/A 66 52 59 N1 29.88F LaGuardia APRT MOSUNNY 66 54 65 NW9 29.87S Kennedy INTL PTSUNNY 69 56 62 NW5 29.88S Breezy Point N/A 63 N/A N/A W7 N/A Newark/Liberty MOSUNNY 68 54 60 NW9 29.87S Teterboro MOSUNNY 66 55 67 VRB5 29.86S $$ NYZ177-179-078>081-271400- LONG ISLAND NEW YORK CITY SKY/WX TMP DP RH WIND PRES REMARKS Jones Beach N/A 64 N/A N/A N2 N/A Matinecock PT NOT AVBL Farmingdale SUNNY 65 53 65 N3 29.87F MacArthur/ISP PTSUNNY 65 53 65 N8 29.87S Shirley SUNNY 65 54 67 N9 29.87S Mt Sinai Harb N/A 63 N/A N/A CALM N/A Westhampton MOSUNNY 64 50 60 N14 29.88S East Hampton PTSUNNY 61 50 67 N9 29.86S Montauk N/A 58 53 84 NW7 29.88R $$ NYZ052-065-067-271400- HUDSON VALLEY CITY SKY/WX TMP DP RH WIND PRES REMARKS White Plains MOSUNNY 64 53 67 VRB3 29.87R Larchmont Harb N/A 59 N/A N/A E7 N/A Croton O-T Hud N/A 63 N/A N/A W1 N/A Newburgh MOSUNNY 61 55 82 CALM 29.89S Montgomery PTSUNNY 65 55 70 CALM 29.87S Poughkeepsie MOSUNNY 61 52 72 NW5 29.87F Albany PTSUNNY 57 48 72 N5 29.91R $$ NJZ001-105-106-008-010-013-015-019>022-104-271400- NEW JERSEY CITY SKY/WX TMP DP RH WIND PRES REMARKS Newark/Liberty MOSUNNY 68 54 60 NW9 29.87S Teterboro MOSUNNY 66 55 67 VRB5 29.86S Caldwell MOSUNNY 68 54 60 NW8 29.88S Somerville PTSUNNY 66 55 67 N6 29.87S Linden PTSUNNY 63 55 75 CALM 29.88S Perth Amboy N/A 63 N/A N/A W7 N/A Sussex PTSUNNY 62 56 80 CALM 29.89S Andover N/A 61 55 81 CALM 29.89S Trenton SUNNY 66 55 67 N7 29.89R Millville SUNNY 67 56 67 NW10 29.92R Atlantic City SUNNY 68 54 60 NW8 29.91R Wrightstown SUNNY 67 55 66 W6 29.88R Toms River SUNNY 67 56 67 NW6 29.90S Belmar SUNNY 67 55 65 NW10 29.90S $$ PAZ047>061-062-071-271400- EASTERN PENNSYLVANIA CITY SKY/WX TMP DP RH WIND PRES REMARKS Philadelphia MOSUNNY 67 52 58 NW9 29.91R Allentown SUNNY 65 54 67 VRB6 29.90R Scranton CLOUDY 59 54 83 SW6 29.91R $$ CTZ002-004>006-009-010-012-RIZ004-006-007-MAZ004-011-015-271400- SOUTHERN NEW ENGLAND IN CT CITY SKY/WX TMP DP RH WIND PRES REMARKS Bradley INTL PTSUNNY 58 48 69 N7 29.88R Hartford CLOUDY 60 47 61 N6G16 29.87S Danbury SUNNY 61 53 75 VRB6 29.88F Wtrbury/Oxford PTSUNNY 57 46 67 N14 29.88S Bridgeport MOSUNNY 67 53 61 N7 29.86S Meriden CLOUDY 60 50 69 N5 29.88R New Haven PTSUNNY 62 51 67 N14 29.86S Chester CLOUDY 59 50 72 NW10 29.87S Groton CLOUDY 58 50 75 N8 29.86S Wilimantic CLOUDY 58 49 72 NW7 29.88R IN RI CITY SKY/WX TMP DP RH WIND PRES REMARKS Providence CLOUDY 58 50 75 NW8 29.86R Block Island CLOUDY 58 52 80 NW7 29.87R Westerly CLOUDY 59 50 72 VRB5 29.87R IN MA CITY SKY/WX TMP DP RH WIND PRES REMARKS Boston PTSUNNY 59 51 75 N6 29.85R Worcester PTSUNNY 54 43 66 NW9 29.85R Westfield NOT AVBL Provincetown SUNNY 56 52 86 NW9 29.85R Nantucket CLOUDY 57 49 74 N12 29.84R $$ ANZ330-335-338-340-345-350-353-355-271400- COASTAL MARINE OBSERVATIONS STATION/POSITION TIME SKY/WX TEMP WIND PRES VSBY WAVE AIR SEA DIR/SP/G HT/PER (UTC) (F) (DEG/KT/KT) (MB) (MI) (FT/S) NY HARB ENTRANCE 1150 58 57 260/ 6/ 6 1011.7 3/ 8 20 S FIRE ISLAND 1250 57 56 290/ 4/ 6 1011.3 3/ 7 GREAT SOUTH BAY NOT AVBL 23 SSW MONTAUK P 1150 56 54 1011.3 4/ 7 15 E BARNEGAT LI 1230 58 N/A 3/ 8 HUDSON CANYON 1150 56 55 270/ 4/ 4 1011.9 4/ 8 KINGS POINT 1236 64 59 50/ 3/ 5 1011.4 EXECUTION ROCKS 1245 62 N/A CENTRAL LI SOUND 1153 57 300/ 6/ 8 N/A 0 EASTERN LI SOUND NOT AVBL ROBBINS REEF 1236 63 230/ 4/ 5 1012.1 $$ >>>>>>>>>>>>>>>>>>>>>>>>>>>> KEY <<<<<<<<<<<<<<<<<<<<<<<<<<< > < > SKY/WX - Sky Condition/Present Weather < > TMP - Temperature in Fahrenheit < > DP - Dew Point in Fahrenheit < > RH - Relative Humidity in Percent < > WIND - Direction (from) and Speed in MPH < > PRES - Mean Sea Level Pressure (inches of Hg) < > WCI - Wind Chill Index < > VSB - VISIBILITY IN MILES < > HX - HEAT INDEX < > TC - TEMPERATURE IN CELSIUS < > VRB - VARIABLE WIND DIRECTION < > < >>>>>>>>>>>>>>>>>>>>>>>>>>>> KEY <<<<<<<<<<<<<<<<<<<<<<<<<<<

USA.gov is the U.S. government's official web portal to all federal, state and local government web resources and services.